FW0979 Weather Reports


time (UTC)temp
C
wind
direction
speed
KPH
gust
KPH
rain 1hr
cm
rain 24hr
cm
rain mn
cm
humidity
%
barometer
mb
20260905010044 35 160 4.8 9.7 0.00 0.00 0.00 22 1003.9
20260905004540 35 113 3.2 9.7 0.00 0.00 0.00 23 1003.8
20260905003040 36 111 3.2 14.5 0.00 0.00 0.00 22 1003.8
20260905001546 36 116 4.8 11.3 0.00 0.00 0.00 22 1003.7
20260905000039 35 149 4.8 8.0 0.00 0.00 0.00 23 1003.6
20260904234538 36 151 4.8 11.3 0.00 0.00 0.00 23 1003.4
20260904233046 36 360 3.2 12.9 0.00 0.00 0.00 23 1003.3
20260904231540 36 160 6.4 12.9 0.00 0.00 0.00 23 1003.3
20260904230101 36 116 11.3 24.1 0.00 0.00 0.00 23 1003.3
20260904224536 38 141 9.7 20.9 0.00 0.00 0.00 23 1003.3
20260904223037 38 217 11.3 19.3 0.00 0.00 0.00 21 1003.3
20260904221533 38 164 11.3 24.1 0.00 0.00 0.00 21 1003.3
20260904220038 38 251 6.4 17.7 0.00 0.00 0.00 20 1003.4
20260904214530 38 165 8.0 17.7 0.00 0.00 0.00 21 1003.5
20260904213031 37 233 8.0 22.5 0.00 0.00 0.00 21 1003.7
20260904211527 37 203 4.8 20.9 0.00 0.00 0.00 22 1003.8
20260904210024 37 256 8.0 19.3 0.00 0.00 0.00 22 1004.0
20260904204530 37 265 3.2 17.7 0.00 0.00 0.00 23 1004.3
20260904203020 37 264 9.7 19.3 0.00 0.00 0.00 22 1004.5
20260904201517 37 202 8.0 19.3 0.00 0.00 0.00 23 1004.7
20260904200016 37 228 9.7 19.3 0.00 0.00 0.00 23 1004.8
20260904194513 37 160 11.3 27.4 0.00 0.00 0.00 23 1005.0
20260904193013 37 179 6.4 19.3 0.00 0.00 0.00 23 1005.1
20260904191512 37 226 8.0 19.3 0.00 0.00 0.00 22 1005.5
20260904190011 37 279 6.4 17.7 0.00 0.00 0.00 23 1005.6
20260904184507 37 212 3.2 12.9 0.00 0.00 0.00 24 1005.9
20260904183003 36 190 4.8 14.5 0.00 0.00 0.00 26 1006.1
20260904181559 36 234 8.0 0.0 0.00 0.00 0.00 27 1006.2
20260904180059 35 260 4.8 9.7 0.00 0.00 0.00 27 1006.5
20260904174553 35 277 4.8 16.1 0.00 0.00 0.00 28 1006.8
20260904173055 35 271 6.4 16.1 0.00 0.00 0.00 29 1007.0
20260904171607 34 233 6.4 14.5 0.00 0.00 0.00 30 1007.1
20260904170046 33 257 8.0 14.5 0.00 0.00 0.00 30 1007.2
20260904164549 33 285 6.4 14.5 0.00 0.00 0.00 32 1007.1
20260904163038 32 303 8.0 16.1 0.00 0.00 0.00 33 1007.1
20260904161545 32 285 8.0 17.7 0.00 0.00 0.00 34 1007.1
20260904160032 32 281 6.4 17.7 0.00 0.00 0.00 35 1007.1
20260904154530 31 286 4.8 11.3 0.00 0.00 0.00 37 1007.1
20260904153039 30 287 3.2 11.3 0.00 0.00 0.00 39 1007.1
20260904151524 30 283 6.4 17.7 0.00 0.00 0.00 40 1007.2
20260904150030 29 304 6.4 12.9 0.00 0.00 0.00 42 1007.2
20260904144517 28 276 6.4 12.9 0.00 0.00 0.00 43 1007.2
20260904143021 28 285 3.2 8.0 0.00 0.00 0.00 44 1007.1
20260904141516 27 285 4.8 9.7 0.00 0.00 0.00 46 1007.2
20260904140026 26 288 6.4 11.3 0.00 0.00 0.00 48 1007.1
20260904134512 25 195 4.8 8.0 0.00 0.00 0.00 49 1007.1
20260904133008 25 178 1.6 4.8 0.00 0.00 0.00 51 1006.9
20260904131525 25 177 0.0 4.8 0.00 0.00 0.00 51 1006.7
20260904130006 25 178 0.0 4.8 0.00 0.00 0.00 48 1006.5
20260904124502 25 178 1.6 6.4 0.00 0.00 0.00 48 1006.2
20260904123059 25 178 1.6 4.8 0.00 0.00 0.00 48 1005.9
20260904121600 25 178 1.6 4.8 0.00 0.00 0.00 48 1005.9
20260904120058 25 178 0.0 3.2 0.00 0.00 0.00 48 1005.9
20260904114604 25 178 1.6 4.8 0.00 0.00 0.00 47 1006.1
20260904113056 25 178 1.6 3.2 0.00 0.00 0.00 47 1006.1
20260904111554 25 178 3.2 6.4 0.00 0.00 0.00 47 1005.9
20260904110053 25 179 3.2 6.4 0.00 0.00 0.00 48 1005.6
20260904104557 25 178 3.2 9.7 0.00 0.00 0.00 47 1005.6
20260904103055 26 180 4.8 11.3 0.00 0.00 0.00 46 1005.6
20260904101552 26 262 3.2 8.0 0.00 0.00 0.00 46 1005.3
20260904100058 26 267 3.2 6.4 0.00 0.00 0.00 45 1005.3
20260904094601 26 268 3.2 8.0 0.00 0.00 0.00 45 1005.2
20260904093046 26 268 3.2 8.0 0.00 0.00 0.00 45 1005.2
20260904091552 26 268 3.2 8.0 0.00 0.00 0.00 46 1005.2
20260904090043 26 360 3.2 12.9 0.00 0.00 0.00 45 1005.2
20260904084541 26 278 6.4 12.9 0.00 0.00 0.00 44 1005.2
20260904083046 26 264 6.4 12.9 0.00 0.00 0.00 44 1005.3
20260904081538 26 265 11.3 20.9 0.00 0.00 0.00 44 1005.2
20260904080036 27 360 11.3 19.3 0.00 0.00 0.00 44 1005.4
20260904074539 27 283 11.3 17.7 0.00 0.00 0.00 45 1005.4
20260904073033 27 360 9.7 16.1 0.00 0.00 0.00 44 1005.6
20260904071530 27 226 4.8 11.3 0.00 0.00 0.00 43 1005.4
20260904070029 27 229 6.4 16.1 0.00 0.00 0.00 43 1005.3
20260904064529 27 226 4.8 12.9 0.00 0.00 0.00 43 1005.3
20260904063026 27 234 4.8 12.9 0.00 0.00 0.00 42 1005.4
20260904061522 28 223 6.4 17.7 0.00 0.00 0.00 41 1005.3
20260904060018 28 212 8.0 14.5 0.00 0.00 0.00 41 1005.3
20260904054534 28 198 6.4 14.5 0.00 0.00 0.00 40 1005.3
20260904053033 28 222 4.8 12.9 0.00 0.00 0.00 39 1005.4
20260904051521 28 214 6.4 17.7 0.00 0.00 0.00 39 1005.5
20260904050030 28 360 6.4 16.1 0.00 0.00 0.00 39 1005.3
20260904044516 28 191 8.0 16.1 0.00 0.00 0.00 39 1005.4
20260904043027 28 164 6.4 11.3 0.00 0.00 0.00 39 1005.6
20260904041513 28 165 6.4 9.7 0.00 0.00 0.00 39 1005.6
20260904040013 28 160 4.8 9.7 0.00 0.00 0.00 39 1005.5
20260904034512 28 178 6.4 17.7 0.00 0.00 0.00 39 1005.6
20260904033021 29 179 6.4 14.5 0.00 0.00 0.00 39 1005.6
20260904031511 29 244 6.4 11.3 0.00 0.00 0.00 38 1005.6
20260904030011 30 227 4.8 12.9 0.00 0.00 0.00 38 1005.4
20260904024510 30 236 3.2 8.0 0.00 0.00 0.00 37 1005.3
20260904023009 30 227 4.8 14.5 0.00 0.00 0.00 36 1005.1
20260904021514 30 209 8.0 14.5 0.00 0.00 0.00 36 1004.9
20260904020009 31 165 3.2 8.0 0.00 0.00 0.00 37 1004.9
20260904014507 31 166 6.4 19.3 0.00 0.00 0.00 36 1004.5
20260904013007 31 158 9.7 19.3 0.00 0.00 0.00 33 1004.1
20260904011506 31 135 9.7 17.7 0.00 0.00 0.00 31 1003.8